Location: NJAA Observatory
(40.6819°N, 74.8979°W)
Time: 07:46:39
(UTC-04:00)

Iridium 4 - Visible Passes

Search period start: 01 July 2016 00:00
Search period end: 11 July 2016 00:00
Orbit: 773 x 776 km, 86.4° (Epoch: 30 June)

Date Brightness Start Highest point End Pass type
(mag) Time Alt. Az. Time Alt. Az. Time Alt. Az.
01 Jul 6.1 01:35:00 10° NNW 01:39:55 44° W 01:40:05 44° W visible
01 Jul 7.8 23:23:00 10° ENE 23:24:17 11° ENE 23:25:20 10° E visible
02 Jul 5.4 01:00:25 10° N 01:05:38 84° W 01:05:44 83° WSW visible
03 Jul 5.9 00:26:09 10° N 00:31:14 52° E 00:31:24 51° E visible
03 Jul 7.3 02:08:02 10° NW 02:11:24 18° W 02:11:48 17° W visible
03 Jul 6.8 23:52:14 10° NNE 23:56:40 28° E 23:57:04 27° E visible
04 Jul 6.6 01:32:43 10° NNW 01:37:18 32° W 01:37:29 32° W visible
04 Jul 7.5 23:19:00 10° NE 23:21:59 15° ENE 23:22:45 15° E visible
05 Jul 5.7 00:57:57 10° N 01:03:05 61° W 01:03:09 61° W visible
06 Jul 5.5 00:23:31 10° N 00:28:44 71° E 00:28:50 71° E visible
06 Jul 7.7 02:06:28 10° NW 02:08:41 13° WNW 02:09:15 13° W visible
06 Jul 6.3 23:49:25 10° NNE 23:54:15 37° E 23:54:32 37° E visible
07 Jul 7.0 01:30:33 10° NNW 01:34:39 24° W 01:34:56 24° W visible
07 Jul 7.1 23:15:47 10° NNE 23:19:37 21° ENE 23:20:13 20° E visible
08 Jul 6.1 00:55:34 10° NNW 01:00:30 44° W 01:00:38 44° W visible
08 Jul 7.7 22:43:37 10° ENE 22:44:52 11° ENE 22:45:55 10° E visible
09 Jul 5.4 00:20:59 10° N 00:26:13 84° W 00:26:20 83° SW visible
09 Jul 5.8 23:46:43 10° N 23:51:48 51° E 23:52:02 51° E visible
10 Jul 7.4 01:28:35 10° NW 01:31:59 18° W 01:32:27 18° W visible
10 Jul 6.7 23:12:48 10° NNE 23:17:15 28° E 23:17:45 27° E visible
